Time,TemperatureF,DewpointF,PressureIn,WindDirection,WindDirectionDegrees,WindSpeedMPH,WindSpeedGustMPH,Humidity,HourlyPrecipIn,Conditions,Clouds,dailyrainin,SoftwareType,DateUTC
2013-02-04 00:00:00,28.9,19.0,29.56,WNW,292,1.3,1.3,66,0.00,,---,0.00,VWS V14.01,2013-02-04 05:00:00,
2013-02-04 00:01:00,28.9,19.0,29.56,WNW,292,1.3,1.3,66,0.00,,---,0.00,VWS V14.01,2013-02-04 05:01:00,
2013-02-04 00:02:00,28.9,19.0,29.56,NNW,338,3.4,3.4,66,0.00,,---,0.00,VWS V14.01,2013-02-04 05:02:00,
2013-02-04 00:07:00,28.9,19.4,29.56,WNW,292,3.1,3.1,67,0.00,,---,0.00,VWS V14.01,2013-02-04 05:07:00,
2013-02-04 00:12:00,28.6,19.7,29.56,NW,315,1.6,2.0,69,0.00,,---,0.00,VWS V14.01,2013-02-04 05:12:00,
2013-02-04 00:17:00,28.6,20.0,29.56,WNW,292,2.5,2.9,70,0.00,,---,0.00,VWS V14.01,2013-02-04 05:17:00,
2013-02-04 00:22:00,28.6,20.0,29.56,NNW,338,2.9,3.4,70,0.00,,---,0.00,VWS V14.01,2013-02-04 05:22:00,
2013-02-04 00:27:00,28.4,20.5,29.56,WNW,292,2.5,2.5,72,0.00,,---,0.00,VWS V14.01,2013-02-04 05:27:00,
2013-02-04 00:32:00,28.6,20.7,29.56,West,270,3.6,3.6,72,0.00,,---,0.00,VWS V14.01,2013-02-04 05:32:00,
2013-02-04 00:37:00,28.2,21.3,29.56,NNW,338,7.8,7.8,75,0.00,,---,0.00,VWS V14.01,2013-02-04 05:37:00,
2013-02-04 00:42:00,28.2,21.0,29.56,WNW,292,7.2,7.2,74,0.00,,---,0.00,VWS V14.01,2013-02-04 05:42:00,
2013-02-04 00:47:00,28.2,21.0,29.56,SW,225,5.8,5.8,74,0.00,,---,0.00,VWS V14.01,2013-02-04 05:47:00,
2013-02-04 00:52:00,28.0,20.5,29.56,NW,315,3.4,6.0,73,0.00,,---,0.00,VWS V14.01,2013-02-04 05:52:00,
2013-02-04 00:57:00,27.9,20.3,29.56,NNW,338,4.3,4.3,73,0.00,,---,0.00,VWS V14.01,2013-02-04 05:57:00,
2013-02-04 01:02:00,27.9,19.7,29.56,NW,315,4.9,7.2,71,0.00,,---,0.00,VWS V14.01,2013-02-04 06:02:00,
2013-02-04 01:07:00,27.7,19.2,29.56,West,270,6.3,6.3,70,0.00,,---,0.00,VWS V14.01,2013-02-04 06:07:00,
2013-02-04 01:12:00,27.7,19.2,29.56,NW,315,3.1,8.7,70,0.00,,---,0.00,VWS V14.01,2013-02-04 06:12:00,
2013-02-04 01:17:00,27.7,19.2,29.56,NNW,338,3.1,4.0,70,0.00,,---,0.00,VWS V14.01,2013-02-04 06:17:00,
2013-02-04 01:22:00,27.9,19.0,29.56,NNW,338,8.1,8.1,69,0.00,,---,0.00,VWS V14.01,2013-02-04 06:22:00,
2013-02-04 01:27:00,27.9,18.7,29.56,WNW,292,4.9,4.9,68,0.00,,---,0.00,VWS V14.01,2013-02-04 06:27:00,
2013-02-04 01:32:00,27.7,17.8,29.56,NNW,338,5.6,5.6,66,0.00,,---,0.00,VWS V14.01,2013-02-04 06:32:00,
2013-02-04 01:37:00,27.7,17.5,29.56,WNW,292,9.6,12.1,65,0.00,,---,0.00,VWS V14.01,2013-02-04 06:37:00,
2013-02-04 01:42:00,27.9,17.3,29.59,NE,45,6.0,6.0,64,0.00,,---,0.00,VWS V14.01,2013-02-04 06:42:00,
2013-02-04 01:47:00,27.9,17.3,29.59,WNW,292,6.5,6.5,64,0.00,,---,0.00,VWS V14.01,2013-02-04 06:47:00,
2013-02-04 01:52:00,28.0,15.2,29.59,NW,315,5.8,11.0,58,0.00,,---,0.00,VWS V14.01,2013-02-04 06:52:00,
2013-02-04 01:57:00,27.9,14.2,29.59,NNW,338,12.3,12.3,56,0.00,,---,0.00,VWS V14.01,2013-02-04 06:57:00,
2013-02-04 02:02:00,27.9,14.2,29.59,WNW,292,6.3,6.3,56,0.00,,---,0.00,VWS V14.01,2013-02-04 07:02:00,
2013-02-04 02:07:00,28.0,14.0,29.59,WNW,292,9.0,9.0,55,0.00,,---,0.00,VWS V14.01,2013-02-04 07:07:00,
2013-02-04 02:12:00,27.9,13.4,29.59,ENE,68,8.5,8.5,54,0.00,,---,0.00,VWS V14.01,2013-02-04 07:12:00,
2013-02-04 02:17:00,27.9,13.4,29.59,NW,315,9.6,9.6,54,0.00,,---,0.00,VWS V14.01,2013-02-04 07:17:00,
2013-02-04 02:22:00,27.3,12.5,29.59,North,0,7.2,7.2,53,0.00,,---,0.00,VWS V14.01,2013-02-04 07:22:00,
2013-02-04 02:27:00,26.8,11.5,29.59,NW,315,6.9,6.9,52,0.00,,---,0.00,VWS V14.01,2013-02-04 07:27:00,
2013-02-04 02:32:00,26.6,11.4,29.59,NNW,338,5.8,13.0,52,0.00,,---,0.00,VWS V14.01,2013-02-04 07:32:00,
2013-02-04 02:37:00,26.4,11.6,29.59,NNE,22,14.8,14.8,53,0.00,,---,0.00,VWS V14.01,2013-02-04 07:37:00,
2013-02-04 02:42:00,26.1,10.9,29.62,NNW,338,3.1,3.1,52,0.00,,---,0.00,VWS V14.01,2013-02-04 07:42:00,
2013-02-04 02:47:00,25.9,10.7,29.62,WNW,292,4.3,8.1,52,0.00,,---,0.00,VWS V14.01,2013-02-04 07:47:00,
2013-02-04 02:52:00,25.7,10.1,29.62,NNE,22,4.9,11.0,51,0.00,,---,0.00,VWS V14.01,2013-02-04 07:52:00,
2013-02-04 02:57:00,25.5,9.9,29.62,NNW,338,8.7,8.7,51,0.00,,---,0.00,VWS V14.01,2013-02-04 07:57:00,
2013-02-04 03:02:00,25.5,9.9,29.62,NW,315,8.7,8.7,51,0.00,,---,0.00,VWS V14.01,2013-02-04 08:02:00,
2013-02-04 03:07:00,25.3,9.8,29.62,NNW,338,6.3,10.7,51,0.00,,---,0.00,VWS V14.01,2013-02-04 08:07:00,
2013-02-04 03:12:00,25.3,9.8,29.62,NNW,338,8.1,8.1,51,0.00,,---,0.00,VWS V14.01,2013-02-04 08:12:00,
2013-02-04 03:17:00,25.3,9.3,29.62,NNW,338,12.3,12.3,50,0.00,,---,0.00,VWS V14.01,2013-02-04 08:17:00,
2013-02-04 03:22:00,25.2,9.6,29.62,WNW,292,10.3,10.3,51,0.00,,---,0.00,VWS V14.01,2013-02-04 08:22:00,
2013-02-04 03:27:00,25.2,9.6,29.62,WNW,292,3.4,11.0,51,0.00,,---,0.00,VWS V14.01,2013-02-04 08:27:00,
2013-02-04 03:32:00,25.0,9.0,29.62,NNW,338,2.5,2.5,50,0.00,,---,0.00,VWS V14.01,2013-02-04 08:32:00,
2013-02-04 03:37:00,24.8,9.2,29.62,WNW,292,5.8,5.8,51,0.00,,---,0.00,VWS V14.01,2013-02-04 08:37:00,
2013-02-04 03:42:00,24.8,9.2,29.62,WNW,292,5.4,5.4,51,0.00,,---,0.00,VWS V14.01,2013-02-04 08:42:00,
2013-02-04 03:47:00,24.6,8.6,29.62,WNW,292,7.4,9.8,50,0.00,,---,0.00,VWS V14.01,2013-02-04 08:47:00,
2013-02-04 03:52:00,24.4,8.0,29.62,NW,315,10.3,10.3,49,0.00,,---,0.00,VWS V14.01,2013-02-04 08:52:00,
2013-02-04 03:57:00,24.6,8.6,29.62,NNW,338,5.8,5.8,50,0.00,,---,0.00,VWS V14.01,2013-02-04 08:57:00,
2013-02-04 04:02:00,24.4,8.5,29.62,NNW,338,5.6,5.6,50,0.00,,---,0.00,VWS V14.01,2013-02-04 09:02:00,
2013-02-04 04:07:00,24.6,8.2,29.62,NNE,22,2.9,4.7,49,0.00,,---,0.00,VWS V14.01,2013-02-04 09:07:00,
2013-02-04 04:12:00,24.4,8.0,29.65,WNW,292,6.0,6.0,49,0.00,,---,0.00,VWS V14.01,2013-02-04 09:12:00,
2013-02-04 04:17:00,24.4,8.0,29.65,NNE,22,4.9,4.9,49,0.00,,---,0.00,VWS V14.01,2013-02-04 09:17:00,
2013-02-04 04:22:00,24.3,7.9,29.65,NNW,338,6.3,6.3,49,0.00,,---,0.00,VWS V14.01,2013-02-04 09:22:00,
2013-02-04 04:27:00,24.4,8.0,29.65,WNW,292,4.9,7.6,49,0.00,,---,0.00,VWS V14.01,2013-02-04 09:27:00,
2013-02-04 04:32:00,24.3,7.9,29.65,NNW,338,8.5,8.5,49,0.00,,---,0.00,VWS V14.01,2013-02-04 09:32:00,
2013-02-04 04:37:00,24.3,7.9,29.65,WNW,292,5.6,9.8,49,0.00,,---,0.00,VWS V14.01,2013-02-04 09:37:00,
2013-02-04 04:42:00,24.1,7.7,29.65,NNW,338,5.4,5.4,49,0.00,,---,0.00,VWS V14.01,2013-02-04 09:42:00,
2013-02-04 04:47:00,24.1,7.7,29.65,WNW,292,6.5,10.5,49,0.00,,---,0.00,VWS V14.01,2013-02-04 09:47:00,
2013-02-04 04:52:00,23.9,7.5,29.65,NNE,22,6.3,6.3,49,0.00,,---,0.00,VWS V14.01,2013-02-04 09:52:00,
2013-02-04 04:57:00,23.9,7.5,29.65,East,90,2.9,2.9,49,0.00,,---,0.00,VWS V14.01,2013-02-04 09:57:00,
2013-02-04 05:02:00,23.7,7.4,29.65,NNW,338,6.7,6.7,49,0.00,,---,0.00,VWS V14.01,2013-02-04 10:02:00,
2013-02-04 05:07:00,23.7,7.4,29.65,NNE,22,4.3,8.1,49,0.00,,---,0.00,VWS V14.01,2013-02-04 10:07:00,
2013-02-04 05:12:00,23.7,7.8,29.68,NW,315,12.3,12.3,50,0.00,,---,0.00,VWS V14.01,2013-02-04 10:12:00,
2013-02-04 05:17:00,23.7,7.4,29.68,NW,315,13.4,13.4,49,0.00,,---,0.00,VWS V14.01,2013-02-04 10:17:00,
2013-02-04 05:22:00,23.5,7.7,29.68,WNW,292,10.7,10.7,50,0.00,,---,0.00,VWS V14.01,2013-02-04 10:22:00,
2013-02-04 05:27:00,23.7,7.8,29.68,WNW,292,7.2,7.2,50,0.00,,---,0.00,VWS V14.01,2013-02-04 10:27:00,
2013-02-04 05:32:00,23.7,7.8,29.68,NNE,22,10.1,10.1,50,0.00,,---,0.00,VWS V14.01,2013-02-04 10:32:00,
2013-02-04 05:37:00,23.7,7.8,29.68,WNW,292,5.4,5.4,50,0.00,,---,0.00,VWS V14.01,2013-02-04 10:37:00,
2013-02-04 05:42:00,23.5,7.7,29.68,WNW,292,12.5,12.5,50,0.00,,---,0.00,VWS V14.01,2013-02-04 10:42:00,
2013-02-04 05:47:00,23.5,7.7,29.68,WNW,292,2.9,2.9,50,0.00,,---,0.00,VWS V14.01,2013-02-04 10:47:00,
2013-02-04 05:52:00,23.5,7.7,29.68,WNW,292,8.5,8.5,50,0.00,,---,0.00,VWS V14.01,2013-02-04 10:52:00,
2013-02-04 05:57:00,23.5,7.7,29.68,NNE,22,8.1,8.1,50,0.00,,---,0.00,VWS V14.01,2013-02-04 10:57:00,
2013-02-04 06:02:00,23.5,7.7,29.68,NNW,338,6.5,8.5,50,0.00,,---,0.00,VWS V14.01,2013-02-04 11:02:00,
2013-02-04 06:07:00,23.5,8.1,29.68,NNW,338,15.2,15.2,51,0.00,,---,0.00,VWS V14.01,2013-02-04 11:07:00,
2013-02-04 06:12:00,23.5,7.7,29.68,WNW,292,5.4,5.4,50,0.00,,---,0.00,VWS V14.01,2013-02-04 11:12:00,
2013-02-04 06:17:00,23.5,7.7,29.68,NNW,338,8.7,8.7,50,0.00,,---,0.00,VWS V14.01,2013-02-04 11:17:00,
2013-02-04 06:22:00,23.5,7.7,29.68,NW,315,12.5,12.5,50,0.00,,---,0.00,VWS V14.01,2013-02-04 11:22:00,
2013-02-04 06:27:00,23.5,7.7,29.68,NNW,338,3.8,10.7,50,0.00,,---,0.00,VWS V14.01,2013-02-04 11:27:00,
2013-02-04 06:32:00,23.5,7.7,29.68,NNW,338,4.0,4.0,50,0.00,,---,0.00,VWS V14.01,2013-02-04 11:32:00,
2013-02-04 06:37:00,23.4,7.9,29.68,WNW,292,2.0,3.8,51,0.00,,---,0.00,VWS V14.01,2013-02-04 11:37:00,
2013-02-04 06:42:00,23.4,7.9,29.71,NNW,338,2.7,6.5,51,0.00,,---,0.00,VWS V14.01,2013-02-04 11:42:00,
2013-02-04 06:47:00,23.2,7.8,29.71,NW,315,2.0,3.4,51,0.00,,---,0.00,VWS V14.01,2013-02-04 11:47:00,
2013-02-04 06:52:00,23.4,8.4,29.71,WSW,248,6.0,6.0,52,0.00,,---,0.00,VWS V14.01,2013-02-04 11:52:00,
2013-02-04 06:57:00,23.2,8.2,29.71,WNW,292,6.5,6.5,52,0.00,,---,0.00,VWS V14.01,2013-02-04 11:57:00,
2013-02-04 07:02:00,23.4,8.4,29.71,WNW,292,2.7,2.7,52,0.00,,---,0.00,VWS V14.01,2013-02-04 12:02:00,
2013-02-04 07:07:00,23.0,8.0,29.71,NW,315,4.3,4.3,52,0.00,,---,0.00,VWS V14.01,2013-02-04 12:07:00,
2013-02-04 07:12:00,23.0,8.0,29.71,WNW,292,4.7,4.7,52,0.00,,---,0.00,VWS V14.01,2013-02-04 12:12:00,
2013-02-04 07:17:00,23.0,8.4,29.71,NW,315,3.4,3.4,53,0.00,,---,0.00,VWS V14.01,2013-02-04 12:17:00,
2013-02-04 07:22:00,23.0,8.4,29.71,NNW,338,4.9,5.8,53,0.00,,---,0.00,VWS V14.01,2013-02-04 12:22:00,
2013-02-04 07:27:00,23.0,8.4,29.71,WNW,292,4.3,4.3,53,0.00,,---,0.00,VWS V14.01,2013-02-04 12:27:00,
2013-02-04 07:32:00,23.2,8.2,29.71,WNW,292,3.4,3.4,52,0.00,,---,0.00,VWS V14.01,2013-02-04 12:32:00,
2013-02-04 07:37:00,23.2,8.2,29.71,NW,315,4.9,4.9,52,0.00,,---,0.00,VWS V14.01,2013-02-04 12:37:00,
2013-02-04 07:42:00,23.2,8.2,29.71,WNW,292,3.8,3.8,52,0.00,,---,0.00,VWS V14.01,2013-02-04 12:42:00,
2013-02-04 07:47:00,23.4,8.4,29.71,WNW,292,3.1,4.7,52,0.00,,---,0.00,VWS V14.01,2013-02-04 12:47:00,
2013-02-04 07:52:00,23.2,8.2,29.71,NW,315,5.8,5.8,52,0.00,,---,0.00,VWS V14.01,2013-02-04 12:52:00,
2013-02-04 07:57:00,23.5,8.5,29.74,WNW,292,5.6,5.6,52,0.00,,---,0.00,VWS V14.01,2013-02-04 12:57:00,
2013-02-04 08:02:00,23.7,8.7,29.74,WNW,292,7.8,7.8,52,0.00,,---,0.00,VWS V14.01,2013-02-04 13:02:00,
2013-02-04 08:07:00,24.1,9.0,29.74,NNW,338,5.6,5.6,52,0.00,,---,0.00,VWS V14.01,2013-02-04 13:07:00,
2013-02-04 08:12:00,24.4,9.4,29.74,WNW,292,3.1,7.4,52,0.00,,---,0.00,VWS V14.01,2013-02-04 13:12:00,
2013-02-04 08:17:00,24.4,9.4,29.74,WNW,292,7.8,7.8,52,0.00,,---,0.00,VWS V14.01,2013-02-04 13:17:00,
2013-02-04 08:22:00,24.4,9.4,29.74,WNW,292,6.9,8.1,52,0.00,,---,0.00,VWS V14.01,2013-02-04 13:22:00,
2013-02-04 08:27:00,24.8,9.7,29.74,WNW,292,4.0,4.0,52,0.00,,---,0.00,VWS V14.01,2013-02-04 13:27:00,
2013-02-04 08:32:00,25.5,9.9,29.74,WNW,292,10.7,10.7,51,0.00,,---,0.00,VWS V14.01,2013-02-04 13:32:00,
2013-02-04 08:37:00,26.8,11.1,29.74,WNW,292,7.4,7.4,51,0.00,,---,0.00,VWS V14.01,2013-02-04 13:37:00,
2013-02-04 08:42:00,27.1,11.0,29.76,WSW,248,8.5,8.5,50,0.00,,---,0.00,VWS V14.01,2013-02-04 13:42:00,
2013-02-04 08:47:00,27.0,10.4,29.76,WNW,292,3.4,4.0,49,0.00,,---,0.00,VWS V14.01,2013-02-04 13:47:00,
2013-02-04 08:52:00,27.0,10.4,29.76,WNW,292,3.1,3.1,49,0.00,,---,0.00,VWS V14.01,2013-02-04 13:52:00,
2013-02-04 08:57:00,27.0,9.9,29.76,NW,315,4.3,4.3,48,0.00,,---,0.00,VWS V14.01,2013-02-04 13:57:00,
2013-02-04 09:02:00,27.0,9.4,29.76,WNW,292,5.6,5.6,47,0.00,,---,0.00,VWS V14.01,2013-02-04 14:02:00,
2013-02-04 09:07:00,27.0,9.4,29.76,WNW,292,12.3,12.3,47,0.00,,---,0.00,VWS V14.01,2013-02-04 14:07:00,
2013-02-04 09:12:00,27.3,9.8,29.76,WNW,292,6.5,6.5,47,0.00,,---,0.00,VWS V14.01,2013-02-04 14:12:00,
2013-02-04 09:17:00,27.3,9.8,29.76,WNW,292,8.7,8.7,47,0.00,,---,0.00,VWS V14.01,2013-02-04 14:17:00,
2013-02-04 09:22:00,28.0,10.4,29.76,NNW,338,5.8,8.7,47,0.00,,---,0.00,VWS V14.01,2013-02-04 14:22:00,
2013-02-04 09:27:00,28.4,10.3,29.76,NW,315,7.4,7.4,46,0.00,,---,0.00,VWS V14.01,2013-02-04 14:27:00,
2013-02-04 09:32:00,29.1,10.4,29.76,WNW,292,4.3,4.3,45,0.00,,---,0.00,VWS V14.01,2013-02-04 14:32:00,
2013-02-04 09:37:00,29.7,10.9,29.76,WNW,292,3.4,3.4,45,0.00,,---,0.00,VWS V14.01,2013-02-04 14:37:00,
2013-02-04 09:42:00,29.7,10.9,29.76,NW,315,2.9,2.9,45,0.00,,---,0.00,VWS V14.01,2013-02-04 14:42:00,
2013-02-04 09:47:00,30.0,11.3,29.76,ENE,68,7.8,7.8,45,0.00,,---,0.00,VWS V14.01,2013-02-04 14:47:00,
2013-02-04 09:52:00,30.0,10.8,29.76,WNW,292,11.0,11.0,44,0.00,,---,0.00,VWS V14.01,2013-02-04 14:52:00,
2013-02-04 09:57:00,30.2,10.9,29.76,NNW,338,10.5,10.5,44,0.00,,---,0.00,VWS V14.01,2013-02-04 14:57:00,
2013-02-04 10:02:00,31.3,11.4,29.76,NNE,22,3.8,3.8,43,0.00,,---,0.00,VWS V14.01,2013-02-04 15:02:00,
2013-02-04 10:07:00,32.4,12.4,29.76,NNW,338,7.4,7.4,43,0.00,,---,0.00,VWS V14.01,2013-02-04 15:07:00,
2013-02-04 10:12:00,33.1,13.0,29.76,NW,315,5.6,7.4,43,0.00,,---,0.00,VWS V14.01,2013-02-04 15:12:00,
2013-02-04 10:17:00,32.9,12.3,29.76,NNW,338,11.0,11.0,42,0.00,,---,0.00,VWS V14.01,2013-02-04 15:17:00,
2013-02-04 10:22:00,33.3,12.7,29.76,NNW,338,5.8,5.8,42,0.00,,---,0.00,VWS V14.01,2013-02-04 15:22:00,
2013-02-04 10:27:00,34.3,13.6,29.74,North,0,12.8,12.8,42,0.00,,---,0.00,VWS V14.01,2013-02-04 15:27:00,
2013-02-04 10:32:00,34.5,13.3,29.74,WNW,292,8.5,8.5,41,0.00,,---,0.00,VWS V14.01,2013-02-04 15:32:00,
2013-02-04 10:37:00,34.5,13.3,29.74,North,0,6.5,6.5,41,0.00,,---,0.00,VWS V14.01,2013-02-04 15:37:00,
2013-02-04 10:42:00,33.8,12.6,29.74,North,0,3.6,3.6,41,0.00,,---,0.00,VWS V14.01,2013-02-04 15:42:00,
2013-02-04 10:47:00,33.3,12.1,29.74,NNW,338,4.3,6.3,41,0.00,,---,0.00,VWS V14.01,2013-02-04 15:47:00,
2013-02-04 10:52:00,34.3,13.1,29.74,NNW,338,3.6,10.1,41,0.00,,---,0.00,VWS V14.01,2013-02-04 15:52:00,
2013-02-04 10:57:00,32.9,11.2,29.74,NNE,22,6.3,6.3,40,0.00,,---,0.00,VWS V14.01,2013-02-04 15:57:00,
2013-02-04 11:02:00,33.4,12.3,29.74,WNW,292,5.4,6.9,41,0.00,,---,0.00,VWS V14.01,2013-02-04 16:02:00,
2013-02-04 11:07:00,33.6,12.4,29.74,WNW,292,8.1,8.1,41,0.00,,---,0.00,VWS V14.01,2013-02-04 16:07:00,
2013-02-04 11:12:00,33.3,12.1,29.74,NNW,338,6.3,6.3,41,0.00,,---,0.00,VWS V14.01,2013-02-04 16:12:00,
2013-02-04 11:17:00,33.4,12.3,29.74,WNW,292,6.0,7.8,41,0.00,,---,0.00,VWS V14.01,2013-02-04 16:17:00,
2013-02-04 11:22:00,34.5,13.3,29.74,WNW,292,16.8,16.8,41,0.00,,---,0.00,VWS V14.01,2013-02-04 16:22:00,
2013-02-04 11:27:00,34.5,13.3,29.74,North,0,9.4,9.4,41,0.00,,---,0.00,VWS V14.01,2013-02-04 16:27:00,
2013-02-04 11:32:00,33.6,12.4,29.74,NW,315,7.2,10.5,41,0.00,,---,0.00,VWS V14.01,2013-02-04 16:32:00,
2013-02-04 11:37:00,33.1,12.0,29.74,NE,45,7.4,7.8,41,0.00,,---,0.00,VWS V14.01,2013-02-04 16:37:00,
2013-02-04 11:42:00,34.2,12.4,29.74,NNE,22,3.8,3.8,40,0.00,,---,0.00,VWS V14.01,2013-02-04 16:42:00,
2013-02-04 11:47:00,34.3,12.5,29.74,NNW,338,8.5,8.5,40,0.00,,---,0.00,VWS V14.01,2013-02-04 16:47:00,
2013-02-04 11:51:00,34.7,12.9,29.74,WNW,292,8.5,17.0,40,0.00,,---,0.00,VWS V14.01,2013-02-04 16:51:00,
2013-02-04 11:56:00,35.1,13.2,29.74,NNW,338,8.1,12.3,40,0.00,,---,0.00,VWS V14.01,2013-02-04 16:56:00,
2013-02-04 12:01:00,35.8,13.8,29.74,WSW,248,8.7,8.7,40,0.00,,---,0.00,VWS V14.01,2013-02-04 17:01:00,
2013-02-04 12:06:00,35.1,13.2,29.74,NNW,338,10.3,10.3,40,0.00,,---,0.00,VWS V14.01,2013-02-04 17:06:00,
2013-02-04 12:11:00,35.8,13.8,29.71,WNW,292,8.5,8.5,40,0.00,,---,0.00,VWS V14.01,2013-02-04 17:11:00,
2013-02-04 12:16:00,35.1,13.2,29.71,NW,315,3.4,8.1,40,0.00,,---,0.00,VWS V14.01,2013-02-04 17:16:00,
2013-02-04 12:21:00,35.4,13.5,29.71,WNW,292,7.4,7.4,40,0.00,,---,0.00,VWS V14.01,2013-02-04 17:21:00,
2013-02-04 12:26:00,35.8,13.3,29.71,WNW,292,12.5,12.5,39,0.00,,---,0.00,VWS V14.01,2013-02-04 17:26:00,
2013-02-04 12:31:00,35.1,12.6,29.71,NNW,338,8.1,8.1,39,0.00,,---,0.00,VWS V14.01,2013-02-04 17:31:00,
2013-02-04 12:36:00,35.1,12.6,29.71,WNW,292,9.6,9.8,39,0.00,,---,0.00,VWS V14.01,2013-02-04 17:36:00,
2013-02-04 12:41:00,35.1,13.2,29.71,NW,315,8.7,12.8,40,0.00,,---,0.00,VWS V14.01,2013-02-04 17:41:00,
2013-02-04 12:46:00,35.2,12.8,29.71,WNW,292,7.6,8.1,39,0.00,,---,0.00,VWS V14.01,2013-02-04 17:46:00,
2013-02-04 12:51:00,35.8,13.3,29.71,WNW,292,6.5,6.5,39,0.00,,---,0.00,VWS V14.01,2013-02-04 17:51:00,
2013-02-04 12:56:00,35.1,12.6,29.71,NNW,338,2.9,8.7,39,0.00,,---,0.00,VWS V14.01,2013-02-04 17:56:00,
2013-02-04 13:01:00,34.9,11.3,29.71,NNW,338,12.3,12.3,37,0.00,,---,0.00,VWS V14.01,2013-02-04 18:01:00,
2013-02-04 13:06:00,34.7,12.3,29.71,NW,315,10.1,10.5,39,0.00,,---,0.00,VWS V14.01,2013-02-04 18:06:00,
2013-02-04 13:11:00,34.9,11.3,29.71,WNW,292,11.9,11.9,37,0.00,,---,0.00,VWS V14.01,2013-02-04 18:11:00,
2013-02-04 13:16:00,35.6,13.1,29.71,NNW,338,4.3,4.3,39,0.00,,---,0.00,VWS V14.01,2013-02-04 18:16:00,
2013-02-04 13:21:00,35.6,13.1,29.71,WNW,292,11.0,11.0,39,0.00,,---,0.00,VWS V14.01,2013-02-04 18:21:00,
2013-02-04 13:26:00,35.6,13.1,29.68,WNW,292,6.3,6.3,39,0.00,,---,0.00,VWS V14.01,2013-02-04 18:26:00,
2013-02-04 13:31:00,34.9,11.9,29.68,NNW,338,7.4,7.4,38,0.00,,---,0.00,VWS V14.01,2013-02-04 18:31:00,
2013-02-04 13:36:00,35.1,12.6,29.68,NE,45,8.7,8.7,39,0.00,,---,0.00,VWS V14.01,2013-02-04 18:36:00,
2013-02-04 13:41:00,34.9,12.4,29.68,WNW,292,3.6,10.7,39,0.00,,---,0.00,VWS V14.01,2013-02-04 18:41:00,
2013-02-04 13:46:00,35.1,12.6,29.68,NNW,338,12.8,12.8,39,0.00,,---,0.00,VWS V14.01,2013-02-04 18:46:00,
2013-02-04 13:51:00,34.9,13.0,29.68,NNW,338,4.0,4.3,40,0.00,,---,0.00,VWS V14.01,2013-02-04 18:51:00,
2013-02-04 13:56:00,34.9,12.4,29.68,NNE,22,8.1,8.1,39,0.00,,---,0.00,VWS V14.01,2013-02-04 18:56:00,
2013-02-04 14:01:00,34.3,12.0,29.68,NNE,22,3.4,7.4,39,0.00,,---,0.00,VWS V14.01,2013-02-04 19:01:00,
2013-02-04 14:06:00,34.2,11.8,29.68,WNW,292,9.8,9.8,39,0.00,,---,0.00,VWS V14.01,2013-02-04 19:06:00,
2013-02-04 14:11:00,34.0,11.6,29.68,WNW,292,8.1,8.5,39,0.00,,---,0.00,VWS V14.01,2013-02-04 19:11:00,
2013-02-04 14:16:00,34.3,12.0,29.68,WNW,292,6.3,7.6,39,0.00,,---,0.00,VWS V14.01,2013-02-04 19:16:00,
2013-02-04 14:21:00,34.3,12.0,29.68,WNW,292,8.1,9.8,39,0.00,,---,0.00,VWS V14.01,2013-02-04 19:21:00,
2013-02-04 14:26:00,34.0,11.6,29.68,NW,315,8.5,8.7,39,0.00,,---,0.00,VWS V14.01,2013-02-04 19:26:00,
2013-02-04 14:31:00,34.0,12.2,29.68,NW,315,7.8,10.5,40,0.00,,---,0.00,VWS V14.01,2013-02-04 19:31:00,
2013-02-04 14:36:00,33.8,12.1,29.68,NW,315,3.6,5.4,40,0.00,,---,0.00,VWS V14.01,2013-02-04 19:36:00,
2013-02-04 14:41:00,33.6,11.9,29.68,NW,315,4.3,8.5,40,0.00,,---,0.00,VWS V14.01,2013-02-04 19:41:00,
2013-02-04 14:46:00,33.8,12.1,29.68,NNW,338,7.6,7.6,40,0.00,,---,0.00,VWS V14.01,2013-02-04 19:46:00,
2013-02-04 14:51:00,33.3,11.6,29.68,NNW,338,2.9,4.0,40,0.00,,---,0.00,VWS V14.01,2013-02-04 19:51:00,
2013-02-04 14:56:00,33.8,12.1,29.68,NNW,338,5.8,5.8,40,0.00,,---,0.00,VWS V14.01,2013-02-04 19:56:00,
2013-02-04 15:01:00,34.0,12.2,29.68,NW,315,5.4,11.0,40,0.00,,---,0.00,VWS V14.01,2013-02-04 20:01:00,
2013-02-04 15:06:00,34.0,12.2,29.68,WNW,292,7.6,14.3,40,0.00,,---,0.00,VWS V14.01,2013-02-04 20:06:00,
2013-02-04 15:11:00,33.4,11.2,29.68,NW,315,12.3,12.3,39,0.00,,---,0.00,VWS V14.01,2013-02-04 20:11:00,
2013-02-04 15:16:00,33.3,11.6,29.68,WNW,292,6.5,6.5,40,0.00,,---,0.00,VWS V14.01,2013-02-04 20:16:00,
2013-02-04 15:21:00,33.3,11.6,29.68,WNW,292,10.1,14.5,40,0.00,,---,0.00,VWS V14.01,2013-02-04 20:21:00,
2013-02-04 15:26:00,33.3,11.6,29.68,WNW,292,11.0,11.0,40,0.00,,---,0.00,VWS V14.01,2013-02-04 20:26:00,
2013-02-04 15:31:00,33.3,11.6,29.68,NNW,338,5.8,8.7,40,0.00,,---,0.00,VWS V14.01,2013-02-04 20:31:00,
2013-02-04 15:36:00,32.9,11.2,29.68,NW,315,8.1,8.1,40,0.00,,---,0.00,VWS V14.01,2013-02-04 20:36:00,
2013-02-04 15:41:00,32.7,11.1,29.68,NNW,338,4.9,4.9,40,0.00,,---,0.00,VWS V14.01,2013-02-04 20:41:00,
2013-02-04 15:46:00,32.7,11.1,29.68,WSW,248,6.5,6.5,40,0.00,,---,0.00,VWS V14.01,2013-02-04 20:46:00,
2013-02-04 15:51:00,32.5,10.9,29.68,WNW,292,7.8,10.3,40,0.00,,---,0.00,VWS V14.01,2013-02-04 20:51:00,
2013-02-04 15:56:00,32.7,11.1,29.68,WNW,292,6.7,6.7,40,0.00,,---,0.00,VWS V14.01,2013-02-04 20:56:00,
2013-02-04 16:01:00,32.5,10.9,29.68,NW,315,7.6,13.2,40,0.00,,---,0.00,VWS V14.01,2013-02-04 21:01:00,
2013-02-04 16:06:00,32.0,10.4,29.68,NW,315,2.7,4.7,40,0.00,,---,0.00,VWS V14.01,2013-02-04 21:06:00,
2013-02-04 16:11:00,32.0,10.4,29.68,WNW,292,5.8,8.5,40,0.00,,---,0.00,VWS V14.01,2013-02-04 21:11:00,
2013-02-04 16:16:00,32.2,10.6,29.68,WNW,292,4.0,5.8,40,0.00,,---,0.00,VWS V14.01,2013-02-04 21:16:00,
2013-02-04 16:21:00,32.2,10.6,29.68,NW,315,7.4,7.4,40,0.00,,---,0.00,VWS V14.01,2013-02-04 21:21:00,
2013-02-04 16:26:00,32.0,10.4,29.68,WNW,292,6.9,6.9,40,0.00,,---,0.00,VWS V14.01,2013-02-04 21:26:00,
2013-02-04 16:31:00,32.0,10.4,29.68,WNW,292,4.3,4.9,40,0.00,,---,0.00,VWS V14.01,2013-02-04 21:31:00,
2013-02-04 16:36:00,31.8,10.3,29.68,NW,315,3.1,10.3,40,0.00,,---,0.00,VWS V14.01,2013-02-04 21:36:00,
2013-02-04 16:41:00,31.6,10.1,29.68,WNW,292,6.7,6.7,40,0.00,,---,0.00,VWS V14.01,2013-02-04 21:41:00,
2013-02-04 16:46:00,31.5,9.9,29.68,WSW,248,4.0,4.7,40,0.00,,---,0.00,VWS V14.01,2013-02-04 21:46:00,
2013-02-04 16:51:00,31.3,9.8,29.68,WNW,292,7.8,10.3,40,0.00,,---,0.00,VWS V14.01,2013-02-04 21:51:00,
2013-02-04 16:56:00,31.3,10.3,29.71,WSW,248,6.3,6.3,41,0.00,,---,0.00,VWS V14.01,2013-02-04 21:56:00,
2013-02-04 17:01:00,31.1,10.2,29.71,NW,315,9.6,9.6,41,0.00,,---,0.00,VWS V14.01,2013-02-04 22:01:00,
2013-02-04 17:06:00,31.1,10.2,29.71,WNW,292,6.3,6.3,41,0.00,,---,0.00,VWS V14.01,2013-02-04 22:06:00,
2013-02-04 17:11:00,30.9,10.0,29.71,West,270,7.6,7.6,41,0.00,,---,0.00,VWS V14.01,2013-02-04 22:11:00,
2013-02-04 17:16:00,30.9,10.0,29.71,WNW,292,4.9,4.9,41,0.00,,---,0.00,VWS V14.01,2013-02-04 22:16:00,
2013-02-04 17:21:00,30.7,9.8,29.71,NW,315,5.4,5.4,41,0.00,,---,0.00,VWS V14.01,2013-02-04 22:21:00,
2013-02-04 17:26:00,30.7,9.8,29.71,NW,315,6.0,6.3,41,0.00,,---,0.00,VWS V14.01,2013-02-04 22:26:00,
2013-02-04 17:31:00,30.4,9.5,29.71,NNE,22,4.0,4.0,41,0.00,,---,0.00,VWS V14.01,2013-02-04 22:31:00,
2013-02-04 17:36:00,30.2,9.4,29.71,WNW,292,3.6,3.6,41,0.00,,---,0.00,VWS V14.01,2013-02-04 22:36:00,
2013-02-04 17:41:00,30.2,9.4,29.71,NW,315,2.0,2.0,41,0.00,,---,0.00,VWS V14.01,2013-02-04 22:41:00,
2013-02-04 17:46:00,30.2,9.9,29.71,NNW,338,1.6,2.9,42,0.00,,---,0.00,VWS V14.01,2013-02-04 22:46:00,
2013-02-04 17:51:00,30.0,9.7,29.71,WNW,292,4.0,4.0,42,0.00,,---,0.00,VWS V14.01,2013-02-04 22:51:00,
2013-02-04 17:56:00,29.8,9.6,29.71,WNW,292,2.5,3.4,42,0.00,,---,0.00,VWS V14.01,2013-02-04 22:56:00,
2013-02-04 18:01:00,29.8,9.6,29.71,WNW,292,2.5,2.7,42,0.00,,---,0.00,VWS V14.01,2013-02-04 23:01:00,
2013-02-04 18:06:00,29.8,9.6,29.71,WNW,292,2.9,2.9,42,0.00,,---,0.00,VWS V14.01,2013-02-04 23:06:00,
2013-02-04 18:11:00,29.7,9.4,29.71,WNW,292,2.5,2.9,42,0.00,,---,0.00,VWS V14.01,2013-02-04 23:11:00,
2013-02-04 18:16:00,29.7,9.4,29.71,WNW,292,3.4,3.4,42,0.00,,---,0.00,VWS V14.01,2013-02-04 23:16:00,
2013-02-04 18:21:00,29.5,9.2,29.71,West,270,1.3,1.3,42,0.00,,---,0.00,VWS V14.01,2013-02-04 23:21:00,
2013-02-04 18:26:00,29.3,9.1,29.71,WNW,292,2.9,2.9,42,0.00,,---,0.00,VWS V14.01,2013-02-04 23:26:00,
2013-02-04 18:31:00,29.1,9.4,29.71,WNW,292,2.0,2.0,43,0.00,,---,0.00,VWS V14.01,2013-02-04 23:31:00,
2013-02-04 18:36:00,29.1,9.4,29.71,WNW,292,1.6,1.6,43,0.00,,---,0.00,VWS V14.01,2013-02-04 23:36:00,
2013-02-04 18:41:00,28.9,9.3,29.71,WNW,292,2.0,2.0,43,0.00,,---,0.00,VWS V14.01,2013-02-04 23:41:00,
2013-02-04 18:46:00,28.9,9.3,29.71,WNW,292,1.6,1.6,43,0.00,,---,0.00,VWS V14.01,2013-02-04 23:46:00,
2013-02-04 18:51:00,29.1,9.4,29.71,WNW,292,2.7,3.4,43,0.00,,---,0.00,VWS V14.01,2013-02-04 23:51:00,
2013-02-04 18:56:00,29.1,9.4,29.71,WNW,292,2.0,2.0,43,0.00,,---,0.00,VWS V14.01,2013-02-04 23:56:00,
2013-02-04 19:01:00,28.9,9.3,29.71,WNW,292,2.9,2.9,43,0.00,,---,0.00,VWS V14.01,2013-02-05 00:01:00,
2013-02-04 19:06:00,28.8,9.1,29.71,West,270,0.9,1.6,43,0.00,,---,0.00,VWS V14.01,2013-02-05 00:06:00,
2013-02-04 19:11:00,28.8,9.6,29.71,West,270,2.2,2.2,44,0.00,,---,0.00,VWS V14.01,2013-02-05 00:11:00,
2013-02-04 19:16:00,28.9,9.8,29.71,WSW,248,1.3,1.3,44,0.00,,---,0.00,VWS V14.01,2013-02-05 00:16:00,
2013-02-04 19:21:00,28.9,9.8,29.71,WSW,248,1.6,1.6,44,0.00,,---,0.00,VWS V14.01,2013-02-05 00:21:00,
2013-02-04 19:26:00,28.6,9.4,29.71,WSW,248,4.3,4.3,44,0.00,,---,0.00,VWS V14.01,2013-02-05 00:26:00,
2013-02-04 19:31:00,28.6,9.4,29.71,WSW,248,2.0,2.0,44,0.00,,---,0.00,VWS V14.01,2013-02-05 00:31:00,
2013-02-04 19:36:00,28.2,9.6,29.71,WSW,248,1.3,2.0,45,0.00,,---,0.00,VWS V14.01,2013-02-05 00:36:00,
2013-02-04 19:41:00,28.0,9.4,29.71,WSW,248,1.3,2.7,45,0.00,,---,0.00,VWS V14.01,2013-02-05 00:41:00,
2013-02-04 19:46:00,28.2,9.6,29.71,WSW,248,2.2,2.5,45,0.00,,---,0.00,VWS V14.01,2013-02-05 00:46:00,
2013-02-04 19:51:00,28.0,9.4,29.71,WSW,248,1.3,2.2,45,0.00,,---,0.00,VWS V14.01,2013-02-05 00:51:00,
2013-02-04 19:56:00,27.7,9.6,29.71,WSW,248,2.0,2.0,46,0.00,,---,0.00,VWS V14.01,2013-02-05 00:56:00,
2013-02-04 20:01:00,27.5,9.4,29.71,WSW,248,0.9,0.9,46,0.00,,---,0.00,VWS V14.01,2013-02-05 01:01:00,
2013-02-04 20:06:00,27.7,10.1,29.71,WSW,248,2.0,2.9,47,0.00,,---,0.00,VWS V14.01,2013-02-05 01:06:00,
2013-02-04 20:11:00,27.5,9.9,29.71,WSW,248,3.4,3.4,47,0.00,,---,0.00,VWS V14.01,2013-02-05 01:11:00,
2013-02-04 20:16:00,27.3,9.8,29.71,WSW,248,0.0,1.6,47,0.00,,---,0.00,VWS V14.01,2013-02-05 01:16:00,
2013-02-04 20:21:00,27.1,9.6,29.71,SSW,202,1.3,1.3,47,0.00,,---,0.00,VWS V14.01,2013-02-05 01:21:00,
2013-02-04 20:26:00,27.1,9.6,29.71,WSW,248,2.7,3.1,47,0.00,,---,0.00,VWS V14.01,2013-02-05 01:26:00,
2013-02-04 20:31:00,27.0,9.9,29.71,WSW,248,2.2,2.2,48,0.00,,---,0.00,VWS V14.01,2013-02-05 01:31:00,
2013-02-04 20:36:00,27.0,9.9,29.71,WSW,248,1.3,2.0,48,0.00,,---,0.00,VWS V14.01,2013-02-05 01:36:00,
2013-02-04 20:41:00,26.8,9.7,29.71,SW,225,1.1,1.1,48,0.00,,---,0.00,VWS V14.01,2013-02-05 01:41:00,
2013-02-04 20:46:00,27.0,9.9,29.71,WSW,248,1.3,1.3,48,0.00,,---,0.00,VWS V14.01,2013-02-05 01:46:00,
2013-02-04 20:51:00,27.0,10.4,29.71,SW,225,1.1,1.1,49,0.00,,---,0.00,VWS V14.01,2013-02-05 01:51:00,
2013-02-04 20:56:00,27.3,10.7,29.71,SW,225,1.3,1.3,49,0.00,,---,0.00,VWS V14.01,2013-02-05 01:56:00,
2013-02-04 21:01:00,27.5,10.9,29.71,SSW,202,0.0,0.0,49,0.00,,---,0.00,VWS V14.01,2013-02-05 02:01:00,
2013-02-04 21:06:00,28.0,11.8,29.71,WSW,248,1.3,1.3,50,0.00,,---,0.00,VWS V14.01,2013-02-05 02:06:00,
2013-02-04 21:11:00,28.2,11.5,29.71,WSW,248,2.0,2.5,49,0.00,,---,0.00,VWS V14.01,2013-02-05 02:11:00,
2013-02-04 21:16:00,28.6,11.9,29.71,WSW,248,1.1,2.0,49,0.00,,---,0.00,VWS V14.01,2013-02-05 02:16:00,
2013-02-04 21:21:00,28.8,12.0,29.71,West,270,2.0,2.0,49,0.00,,---,0.00,VWS V14.01,2013-02-05 02:21:00,
2013-02-04 21:26:00,29.1,11.9,29.71,WSW,248,4.0,4.0,48,0.00,,---,0.00,VWS V14.01,2013-02-05 02:26:00,
2013-02-04 21:31:00,29.3,12.1,29.71,WSW,248,2.9,2.9,48,0.00,,---,0.00,VWS V14.01,2013-02-05 02:31:00,
2013-02-04 21:36:00,29.5,12.2,29.71,WSW,248,2.0,3.1,48,0.00,,---,0.00,VWS V14.01,2013-02-05 02:36:00,
2013-02-04 21:41:00,29.5,12.2,29.71,West,270,2.5,3.6,48,0.00,,---,0.00,VWS V14.01,2013-02-05 02:41:00,
2013-02-04 21:46:00,29.7,12.4,29.71,WSW,248,2.7,2.7,48,0.00,,---,0.00,VWS V14.01,2013-02-05 02:46:00,
2013-02-04 21:51:00,29.7,12.4,29.71,WSW,248,2.0,2.5,48,0.00,,---,0.00,VWS V14.01,2013-02-05 02:51:00,
2013-02-04 21:56:00,29.8,12.6,29.71,WSW,248,2.2,2.2,48,0.00,,---,0.00,VWS V14.01,2013-02-05 02:56:00,
2013-02-04 22:01:00,30.0,12.7,29.71,WSW,248,2.2,2.2,48,0.00,,---,0.00,VWS V14.01,2013-02-05 03:01:00,
2013-02-04 22:06:00,30.0,12.7,29.71,West,270,2.2,2.2,48,0.00,,---,0.00,VWS V14.01,2013-02-05 03:06:00,
2013-02-04 22:11:00,30.0,12.7,29.71,West,270,2.9,2.9,48,0.00,,---,0.00,VWS V14.01,2013-02-05 03:11:00,
2013-02-04 22:16:00,30.2,12.4,29.71,WNW,292,2.2,2.2,47,0.00,,---,0.00,VWS V14.01,2013-02-05 03:16:00,
2013-02-04 22:21:00,30.2,12.9,29.71,WSW,248,2.5,2.5,48,0.00,,---,0.00,VWS V14.01,2013-02-05 03:21:00,
2013-02-04 22:26:00,30.4,12.6,29.71,WNW,292,3.4,3.4,47,0.00,,---,0.00,VWS V14.01,2013-02-05 03:26:00,
2013-02-04 22:31:00,30.4,12.6,29.71,WNW,292,2.7,2.7,47,0.00,,---,0.00,VWS V14.01,2013-02-05 03:31:00,
2013-02-04 22:36:00,30.4,12.6,29.71,West,270,3.8,4.5,47,0.00,,---,0.00,VWS V14.01,2013-02-05 03:36:00,
2013-02-04 22:41:00,30.4,12.6,29.71,WNW,292,5.6,5.6,47,0.00,,---,0.00,VWS V14.01,2013-02-05 03:41:00,
2013-02-04 22:46:00,30.4,13.5,29.71,NNW,338,3.4,3.4,49,0.00,,---,0.00,VWS V14.01,2013-02-05 03:46:00,
2013-02-04 22:51:00,30.2,14.7,29.71,NNW,338,2.0,2.0,52,0.00,,---,0.00,VWS V14.01,2013-02-05 03:51:00,
2013-02-04 22:56:00,30.0,15.8,29.71,NNW,338,2.0,2.0,55,0.00,,---,0.00,VWS V14.01,2013-02-05 03:56:00,
2013-02-04 23:01:00,30.2,15.6,29.71,WNW,292,2.0,2.0,54,0.00,,---,0.00,VWS V14.01,2013-02-05 04:01:00,
2013-02-04 23:06:00,30.2,15.6,29.71,WNW,292,1.1,1.3,54,0.00,,---,0.00,VWS V14.01,2013-02-05 04:06:00,
2013-02-04 23:11:00,30.4,15.7,29.71,West,270,2.5,2.5,54,0.00,,---,0.00,VWS V14.01,2013-02-05 04:11:00,
2013-02-04 23:16:00,30.4,15.7,29.71,WSW,248,2.5,2.5,54,0.00,,---,0.00,VWS V14.01,2013-02-05 04:16:00,
2013-02-04 23:21:00,30.6,16.3,29.71,WNW,292,2.9,2.9,55,0.00,,---,0.00,VWS V14.01,2013-02-05 04:21:00,
2013-02-04 23:26:00,30.6,16.3,29.71,WSW,248,2.2,3.8,55,0.00,,---,0.00,VWS V14.01,2013-02-05 04:26:00,
2013-02-04 23:31:00,30.6,16.7,29.71,WSW,248,2.0,2.5,56,0.00,,---,0.00,VWS V14.01,2013-02-05 04:31:00,
2013-02-04 23:36:00,30.4,16.6,29.71,WSW,248,6.3,6.3,56,0.00,,---,0.00,VWS V14.01,2013-02-05 04:36:00,
2013-02-04 23:41:00,30.2,16.8,29.71,WSW,248,2.0,2.0,57,0.00,,---,0.00,VWS V14.01,2013-02-05 04:41:00,
2013-02-04 23:46:00,30.2,17.2,29.71,West,270,5.8,5.8,58,0.00,,---,0.00,VWS V14.01,2013-02-05 04:46:00,
2013-02-04 23:51:00,30.2,17.6,29.71,WSW,248,3.6,3.6,59,0.00,,---,0.00,VWS V14.01,2013-02-05 04:51:00,
2013-02-04 23:56:00,29.8,17.3,29.71,WSW,248,2.7,2.7,59,0.00,,---,0.00,VWS V14.01,2013-02-05 04:56:00,